sat.trackr.live / text

‹ back to catalog

BUZZER-1

NORAD 62609 · 2025-009A

PAYLOAD ACTIVE UNKNOWN

§ Identity

Operator
Country
FR
Launch date
2025-01-14
Launch site
AFWTR
Launch vehicle
Mass (kg)
RCS (m²)

External: N2YO · Heavens-Above · Gunter

§ Orbital elements

Epoch: 2026-09-22T16:26:41.033760Z

Period
94.60 min
Inclination
97.3857°
Eccentricity
0.0007477
Mean motion
15.22246915 rev/d
Perigee alt
493.9 km
Apogee alt
504.2 km
Semi-major
6,877.2 km
B*
8.1665e-5
RAAN
342.2266°
Arg perigee
4.8912°
Mean anomaly
355.2396°
Rev number
9,352

§ Raw data

BUZZER-11 62609U 25009A   26265.68519715  .00001809  00000+0  81665-4 0  99992 62609  97.3857 342.2266 0007477   4.8912 355.2396 15.22246915 93527

JSON: /api/v1/satellites/62609 · /tle

For live sub-satellite position, see the globe view (requires WebGL).

§ Visibility from observer

Set your observer location to see the next 7 days of passes ≥ 10°. The values pass through the URL so the page stays shareable.

No JS? Fill the form by hand. The geolocation button needs JavaScript.

§ Radio — SatNOGS DB

ModeDescriptionDownlinkUplink
FM Telemetry 401.882 MHz

1 transmitter · refreshed weekly from db.satnogs.org